Location: Peebles
(55.6412°N, 3.1714°W)
Time: 06:34:00
(UTC+01:00)

deb Agena D - Pass Details

Date: 12 July 2022
Orbit: 797 x 980 km, 99.8° (Epoch: 16 August)

Event Time Altitude Azimuth Distance (km) Brightness Sun altitude
Rises 01:42:30 0° 15° (NNE) 3,417 11.3 -12.2°
Reaches altitude 10° 01:46:17 10° 348° (NNW) 2,517 9.9 -12.1°
Maximum altitude 01:48:32 13° 324° (NW) 2,355 9.2 -12.1°
Drops below altitude 10° 01:50:49 10° 300° (WNW) 2,563 9.0 -12.1°
Sets 01:54:46 0° 273° (W) 3,544 9.4 -12.0°
